Tracking 28081 objects as of 27-Sep-2023
HD Live streaming from Space Station
objects crossing your sky now

COSMOS 1030 DEB

Track COSMOS 1030 DEB now!


NORAD ID: 39447
Int'l Code: 1978-083T
Perigee: 2,858.4 km
Apogee: 37,545.0 km
Inclination: 65.1 °
Period: 718.5 minutes
Semi major axis: 26572 km
RCS: Unknown
Launch date: September 6, 1978
Source: Commonwealth of Independent States (former USSR) (CIS)
Launch site: PLESETSK MISSILE AND SPACE COMPLEX (PKMTR)

Note: This is SATELLITE DEBRIS
Your satellite tracking list
Your tracking list is empty




NASA's NSSDC Master Catalog

Two Line Element Set (TLE):
1 39447U 78083T   23269.40179417 -.00000292  00000-0  00000+0 0  9991
2 39447  65.0593 291.5177 6526726   6.9490 359.0560  2.00423688 72067
Source of the keplerian elements: AFSPC